[[{"header":{"parameterUnit":"m.s-1","parameterCategory":1,"la1":30.2991,"la2":30.254,"lo1":-89.0895,"lo2":-89.0444,"dx":0.0017,"dy":0.0017,"nx":28,"ny":28,"refTime":"2022-11-05T21:00:00:Z","depth":0,"parameterNumber":2,"parameterNumberName":"U-component_of_WINDS"},"data":[0,0,0,0,0,0,0,0,0,0,0,0,0,0,0,0,0,0,0,0,0,0,0,0,0,0,0,0,0,0,0,0,0,0,0,0,0,0,0,0,0,0,0,0,0,0,0,0,0,0,0,0,0,0,0,0,0,0,-4.8628,-4.8629,0,-4.8761,-4.8763,-4.8764,-4.8738,-4.8736,-4.8733,-4.8731,-4.8866,-4.8872,-4.8877,0,0,0,0,0,0,0,0,0,0,0,0,0,-4.8349,-4.8354,-4.8627,-4.8629,-4.8631,-4.8761,-4.8763,-4.8765,-4.8739,-4.8736,-4.8733,-4.873,-4.8864,-4.8871,-4.8878,0,0,0,0,0,0,0,0,0,0,0,0,0,-4.8475,-4.8356,-4.8627,-4.8633,-4.8635,-4.8761,-4.8763,-4.8765,-4.8739,-4.8736,-4.8732,-4.8729,-4.8862,-4.887,-4.8879,-4.9006,0,0,-4.8906,-4.8909,0,0,0,0,0,0,0,0,-4.8468,-4.8485,-4.8631,-4.8633,-4.8636,-4.8729,-4.8714,-4.8846,-4.874,-4.87,-4.8731,-4.8727,-4.8823,-4.8835,-4.8868,-4.9012,-4.9018,-4.8906,-4.8912,-4.8916,-4.8918,0,0,0,0,0,0,0,-4.8459,-4.8479,-4.868,-4.8633,-4.8636,-4.863,-4.8643,-4.8739,-4.878,-4.8703,-4.8701,-4.8718,-4.8824,-4.886,-4.8871,-4.902,-4.8906,-4.8914,-4.8919,-4.8923,-4.9276,-4.928,0,0,0,0,0,0,-4.8448,-4.8472,-4.8676,-4.8684,-4.8541,-4.8638,-4.8653,-4.8703,-4.8779,-4.8787,-4.8721,-4.8716,-4.8846,-4.8861,-4.8876,-4.903,-4.8915,-4.8924,-4.8929,-4.9272,-4.9277,-4.9282,0,0,0,0,0,0,-4.8442,-4.8467,-4.8671,-4.8578,-4.8603,-4.8646,-4.8702,-4.8707,-4.8743,-4.8792,-4.88,-4.875,-4.8844,-4.8863,-4.8974,-4.9034,-4.8928,-4.8936,-4.9267,-4.9274,-4.928,-4.9338,0,0,0,0,0,0,-4.8435,-4.8465,-4.8513,-4.8579,-4.8609,-4.8767,-4.8706,-4.8713,-4.8759,-4.8754,-4.8822,-4.8829,-4.8843,-4.8961,-4.8983,-4.9044,-4.8942,-4.9262,-4.927,-4.9278,-4.9331,-4.9346,-4.9358,0,0,0,0,0,-4.8425,-4.8524,-4.8516,-4.8541,-4.867,-4.8771,-4.8787,-4.8801,-4.8764,-4.8813,-4.8845,-4.8827,-4.9025,-4.8973,-4.8997,-4.9062,-4.9258,-4.9268,-4.9277,-4.9325,-4.9343,-4.9358,0,0,0,0,0,0,-4.8462,-4.8532,-4.8524,-4.8648,-4.8704,-4.8766,-4.8828,-4.882,-4.8886,-4.8879,-4.8893,-4.8909,-4.9022,-4.9053,-4.8994,-4.9189,-4.9136,-4.9151,-4.9164,-4.9182,-4.9195,-4.9184,-4.895,0,0,0,0,0,-4.8485,-4.8561,-4.8618,-4.8722,-4.875,-4.8785,-4.8829,-4.8835,-4.8893,-4.8917,-4.8957,-4.9013,-4.9088,-4.9137,-4.9208,-4.9337,-4.9351,-4.9393,-4.9407,-4.9418,-4.943,-4.9501,-4.952,-4.9312,-4.9312,-4.9312,0,0,-4.8532,-4.858,-4.8627,-4.873,-4.8774,-4.8853,-4.8804,-4.8889,-4.8947,-4.8929,-4.9036,-4.9068,-4.9133,-4.9253,-4.9308,-4.9282,-4.9491,-4.943,-4.9438,-4.9444,-4.9512,-4.9532,-4.9549,-4.9319,-4.9318,-4.9317,0,0,-4.8658,-4.8703,-4.8794,-4.884,-4.8908,-4.893,-4.8953,-4.9017,-4.9038,-4.9146,-4.9135,-4.9205,-4.9333,-4.938,-4.942,-4.9568,-4.9554,-4.9591,-4.9661,-4.973,-4.9746,-4.9761,-4.9814,-4.9832,-4.9603,-4.9603,-4.9603,0,-4.8708,-4.8826,-4.8842,-4.8928,-4.8974,-4.8964,-4.9056,-4.91,-4.9188,-4.922,-4.9191,-4.9353,-4.9395,-4.9527,-4.9563,-4.9597,-4.9622,-4.9582,-4.9743,-4.9758,-4.9772,-4.9822,-4.9842,-4.9607,-4.9607,-4.9606,-4.9606,0,-4.8884,-4.8967,-4.9033,-4.9119,-4.9173,-4.9262,-4.9291,-4.9344,-4.9347,-4.9373,-4.9484,-4.9535,-4.9618,-4.965,-4.9652,-4.9783,-4.9765,-4.974,-4.9686,-4.9795,-4.9843,-4.9862,-4.9613,-4.9612,-4.961,-4.9609,0,0,-4.9035,-4.9131,-4.9155,-4.9194,-4.927,-4.9334,-4.9424,-4.9506,-4.955,-4.9612,-4.9688,-4.9798,-4.9776,-4.9822,-4.9831,-4.9892,-5.0006,-4.9859,-4.9861,-4.9884,-5.0153,-5.0171,-5.0193,-4.9998,-5.0002,-5.0005,-5.0147,0,-4.9168,-4.9326,-4.9344,-4.9485,-4.9562,-4.9554,-4.9632,-4.9687,-4.9715,-4.9784,-4.9814,-4.9893,-4.9857,-4.9885,-4.9946,-4.9979,-5.006,-4.9969,-5.0068,-5.0071,-5.0051,-5.0217,-5.0236,-5.0367,-5.0166,-5.0169,-5.0171,0,-4.9343,-4.9411,-4.956,-4.9627,-4.966,-4.973,-4.9807,-4.9874,-4.9937,-4.9953,-5.0006,-5.0007,-5.01,-5.0045,-5.0173,-5.0111,-5.0153,-5.0176,-5.0182,-5.019,-5.0127,-5.0229,-5.041,-5.0429,-5.0201,-5.0198,-5.0196,0,-4.9437,-4.9567,-4.9673,-4.9707,-4.9788,-4.9838,-4.9873,-4.9933,-4.9982,-5.005,-5.0082,-5.0159,-5.0201,-5.0262,-5.0284,-5.0242,-5.0412,-5.0358,-5.0427,-5.0427,-5.0462,-5.0459,-5.065,-5.0491,-5.049,-5.049,-5.049,0,-4.9583,-4.9674,-4.9717,-4.9782,-4.9885,-4.9905,-5.0006,-5.004,-5.0094,-5.0165,-5.0164,-5.0231,-5.0257,-5.0329,-5.0348,-5.0452,-5.0471,-5.0486,-5.049,-5.0486,-5.0484,-5.0512,-5.0503,-5.0495,-5.0494,-5.0493,-5.0492,0,-4.9705,-4.9737,-4.9852,-4.992,-4.994,-5.0012,-5.0071,-5.0134,-5.0162,-5.0253,-5.0276,-5.0319,-5.0404,-5.0433,-5.0536,-5.0548,-5.0669,-5.0665,-5.0648,-5.0648,-5.0715,-5.0708,-5.0931,-5.0961,-5.0782,-5.0784,-5.0786,0,-4.9795,-4.9865,-4.9942,-4.999,-5.0028,-5.0106,-5.0157,-5.018,-5.0233,-5.0312,-5.0366,-5.045,-5.0519,-5.0655,-5.0695,-5.0774,-5.0772,-5.0845,-5.0783,-5.0778,-5.0772,-5.0768,-5.0775,-5.0855,-5.0857,-5.0859,-5.086,0,-4.9951,-4.9964,-5.0037,-5.0117,-5.0177,-5.0241,-5.0302,-5.0342,-5.0375,-5.0434,-5.0521,-5.0575,-5.0681,-5.0765,-5.0846,-5.0883,-5.0877,-5.0879,-5.0899,-5.0895,-5.0882,-5.089,-5.0678,-5.0873,-5.0872,-5.0871,-5.087,-5.087,-5.006,-5.0122,-5.0187,-5.0268,-5.0318,-5.0376,-5.0439,-5.0476,-5.0549,-5.0638,-5.0648,-5.0742,-5.0805,-5.0914,-5.0955,-5.1029,-5.1009,-5.1038,-5.1045,-5.1052,-5.1057,-5.0872,-5.1044,-5.1044,-5.1043,-5.1043,-5.1043,0,-5.0216,-5.0257,-5.0333,-5.0419,-5.0484,-5.0475,-5.0543,-5.0598,-5.0681,-5.0741,-5.0809,-5.091,-5.0993,-5.1041,-5.1124,-5.1174,-5.1173,-5.1195,-5.119,-5.1199,-5.107,-5.1044,-5.1194,-5.1194,-5.1194,-5.1194,-5.1194,-5.1194,-5.0304,-5.041,-5.0432,-5.0563,-5.0604,-5.0696,-5.0736,-5.079,-5.0838,-5.0952,-5.102,-5.1052,-5.1108,-5.1195,-5.127,-5.1282,-5.1312,-5.1336,-5.1346,-5.1224,-5.1208,-5.1193,-5.1169,-5.1342,-5.1342,-5.1469,-5.147,-5.1471]},{"header":{"parameterUnit":"m.s-1","parameterCategory":1,"la1":30.2991,"la2":30.254,"lo1":-89.0895,"lo2":-89.0444,"dx":0.0017,"dy":0.0017,"nx":28,"ny":28,"refTime":"2022-11-05T21:00:00:Z","depth":0,"parameterNumber":3,"parameterNumberName":"V-component_of_WINDS"},"data":[0,0,0,0,0,0,0,0,0,0,0,0,0,0,0,0,0,0,0,0,0,0,0,0,0,0,0,0,0,0,0,0,0,0,0,0,0,0,0,0,0,0,0,0,0,0,0,0,0,0,0,0,0,0,0,0,0,0,3.7135,3.7135,0,3.7211,3.7212,3.7213,3.7216,3.7215,3.7214,3.7213,3.7288,3.729,3.7293,0,0,0,0,0,0,0,0,0,0,0,0,0,3.699,3.6992,3.7135,3.7136,3.7137,3.7211,3.7212,3.7213,3.7216,3.7215,3.7213,3.7212,3.7287,3.729,3.7293,0,0,0,0,0,0,0,0,0,0,0,0,0,3.7058,3.6993,3.7134,3.7147,3.7149,3.7211,3.7212,3.7213,3.7216,3.7215,3.7213,3.7212,3.7286,3.729,3.7294,3.7348,0,0,3.7307,3.7309,0,0,0,0,0,0,0,0,3.7054,3.7063,3.7144,3.7146,3.7148,3.7203,3.7188,3.7258,3.7216,3.719,3.7213,3.7211,3.726,3.7266,3.7284,3.7351,3.7354,3.7307,3.731,3.7312,3.7313,0,0,0,0,0,0,0,3.7049,3.706,3.7165,3.7145,3.7148,3.7148,3.7157,3.7202,3.7232,3.7192,3.7193,3.7202,3.7261,3.728,3.7285,3.7355,3.7307,3.7311,3.7314,3.7315,3.7474,3.7476,0,0,0,0,0,0,3.7042,3.7056,3.7162,3.7167,3.7097,3.7152,3.7161,3.7186,3.7231,3.7237,3.7203,3.7202,3.7273,3.728,3.7288,3.7356,3.7312,3.7316,3.7318,3.7473,3.7475,3.7477,0,0,0,0,0,0,3.7039,3.7052,3.7159,3.7112,3.7125,3.7156,3.7184,3.7189,3.7207,3.724,3.7245,3.7217,3.7272,3.7282,3.7334,3.7359,3.7318,3.7321,3.7471,3.7473,3.7476,3.7492,0,0,0,0,0,0,3.7035,3.7051,3.7071,3.7112,3.7128,3.7204,3.7186,3.7191,3.7215,3.7214,3.7254,3.7259,3.7272,3.7328,3.7338,3.7364,3.7325,3.7469,3.7472,3.7475,3.7489,3.7495,3.7499,0,0,0,0,0,3.703,3.7071,3.7072,3.7085,3.7155,3.7205,3.7214,3.723,3.7217,3.7238,3.726,3.7257,3.7354,3.7333,3.7345,3.7372,3.7467,3.7471,3.7475,3.7487,3.7494,3.7499,0,0,0,0,0,0,3.703,3.7077,3.7078,3.7134,3.7166,3.7206,3.7233,3.7236,3.7271,3.7268,3.7285,3.7294,3.7346,3.7364,3.7339,3.7428,3.7409,3.7416,3.7415,3.7421,3.7426,3.7421,3.7328,0,0,0,0,0,3.7037,3.7076,3.7114,3.7159,3.7176,3.7202,3.7224,3.7234,3.7267,3.728,3.7305,3.7336,3.7374,3.7398,3.7435,3.7492,3.7502,3.7517,3.7522,3.7526,3.7531,3.7566,3.7574,3.7489,3.7489,3.7489,0,0,3.7051,3.7082,3.7104,3.716,3.7186,3.7226,3.7213,3.7254,3.7283,3.7285,3.7337,3.7357,3.7393,3.7449,3.7474,3.7466,3.7557,3.7531,3.7534,3.7537,3.7571,3.7579,3.7586,3.7491,3.7491,3.7491,0,0,3.7098,3.7124,3.7166,3.7193,3.7233,3.7251,3.7261,3.7302,3.7315,3.7368,3.7371,3.7406,3.747,3.7497,3.7519,3.758,3.758,3.7591,3.7617,3.7651,3.7657,3.7663,3.7687,3.7695,3.7596,3.7596,3.7596,0,3.711,3.717,3.7187,3.723,3.7255,3.7262,3.7306,3.733,3.738,3.7397,3.7387,3.747,3.7495,3.7558,3.7574,3.759,3.7604,3.7586,3.7655,3.7661,3.7667,3.769,3.7699,3.7597,3.7597,3.7597,3.7597,0,3.7184,3.7226,3.7255,3.7306,3.7334,3.7377,3.7401,3.7428,3.7436,3.7455,3.751,3.754,3.7584,3.76,3.7606,3.7665,3.7659,3.7652,3.7633,3.7676,3.7698,3.7707,3.7599,3.7599,3.7598,3.7598,0,0,3.7231,3.7293,3.7304,3.7328,3.7374,3.7407,3.7451,3.7496,3.752,3.7554,3.7592,3.7648,3.7643,3.7668,3.7678,3.7708,3.7757,3.7698,3.7699,3.7709,3.7826,3.7833,3.7842,3.7757,3.7759,3.776,3.7824,0,3.7283,3.7363,3.7382,3.745,3.749,3.7498,3.7537,3.757,3.7589,3.7626,3.7647,3.7688,3.7676,3.7692,3.7722,3.7745,3.7781,3.774,3.7794,3.7795,3.7786,3.7853,3.7859,3.7917,3.7832,3.7834,3.7835,0,3.7355,3.7394,3.7467,3.7512,3.7529,3.7564,3.7609,3.7643,3.7681,3.7694,3.7724,3.7732,3.7779,3.7758,3.7823,3.7795,3.7818,3.7833,3.7836,3.7842,3.7818,3.7863,3.7936,3.7946,3.7848,3.7847,3.7846,0,3.7385,3.7455,3.7509,3.753,3.7582,3.7607,3.7629,3.7666,3.7693,3.7732,3.775,3.7793,3.7817,3.785,3.787,3.7853,3.7935,3.7915,3.7947,3.7947,3.7964,3.7963,3.8044,3.7977,3.7977,3.7977,3.7977,0,3.7442,3.7487,3.7524,3.7557,3.7608,3.7629,3.7679,3.7702,3.7735,3.7774,3.7782,3.7817,3.7841,3.788,3.7896,3.7949,3.7959,3.7971,3.7975,3.7971,3.797,3.7987,3.7984,3.7979,3.7979,3.7978,3.7978,0,3.7484,3.751,3.757,3.7616,3.7629,3.7665,3.7704,3.7737,3.7758,3.7806,3.7818,3.7851,3.7897,3.7921,3.7978,3.7989,3.805,3.805,3.8037,3.8039,3.8071,3.8068,3.8167,3.8182,3.8103,3.8104,3.8104,0,3.7519,3.7555,3.7606,3.7633,3.7657,3.77,3.7729,3.7751,3.7781,3.7829,3.7857,3.7904,3.7944,3.8018,3.8046,3.8091,3.8093,3.8125,3.81,3.8096,3.8096,3.8095,3.8099,3.8129,3.813,3.8131,3.8131,0,3.7581,3.7593,3.7634,3.7682,3.7717,3.7754,3.7791,3.7813,3.7842,3.7875,3.7924,3.7955,3.8015,3.8063,3.811,3.8133,3.8138,3.8139,3.8149,3.8146,3.8138,3.8145,3.8051,3.8137,3.8136,3.8136,3.8135,3.8135,3.7622,3.7655,3.7697,3.7744,3.7775,3.7811,3.7845,3.7871,3.7913,3.7965,3.7976,3.8029,3.8068,3.8133,3.8158,3.8199,3.8193,3.8207,3.8211,3.8214,3.8217,3.8131,3.8208,3.8208,3.8208,3.8207,3.8207,0,3.7685,3.7714,3.7757,3.781,3.7848,3.785,3.7892,3.7924,3.797,3.8008,3.8047,3.8105,3.8152,3.8186,3.8234,3.8261,3.8264,3.8273,3.8272,3.8278,3.8219,3.8207,3.827,3.827,3.827,3.827,3.827,3.827,3.7723,3.778,3.7798,3.7871,3.7898,3.7952,3.7976,3.8009,3.804,3.8104,3.8144,3.8166,3.8203,3.8254,3.8298,3.8307,3.8325,3.8334,3.8343,3.8288,3.8281,3.8275,3.8263,3.8337,3.8337,3.8398,3.8399,3.8399]}]]